Gulfport, MS

7:58 PM CST on January 18, 2018 (GMT -0600)
Gulfport-Biloxi Regional

Weather History for KGPT - July, 2014

Change the Weather History Date:

Thursday, July 3, 2014

  Actual Average Record
Temperature  
Mean Temperature 84 °F -  
Max Temperature 95 °F 92 °F 97 °F (1969)
Min Temperature 75 °F 74 °F 32 °F (1998)
Cooling Degree Days 19    
Growing Degree Days 34 (Base 50)    
Moisture  
Dew Point 70 °F    
Average Humidity 62    
Maximum Humidity 82    
Minimum Humidity 41    
Precipitation  
Precipitation 0.00 in - - ()
Sea Level Pressure  
Sea Level Pressure 30.04 in    
Wind  
Wind Speed 5 mph (North)    
Max Wind Speed 10 mph    
Max Gust Speed -    
Visibility 10 miles    
Events      
Averages and records for this station are not official NWS values.
T = Trace of Precipitation, MM = Missing Value Source: NWS Daily Summary

Daily Weather History Graph

Daily Weather History Graph

Search for Another Location

Airport or City:

Trip Planner

Search our weather history database for the weather conditions in past years. The results will help you decide how hot, cold, wet, or windy it might be!

Date:

Astronomy

Jul. 03, 2014 Rise Set
Actual Time 5:58 AM CDT 8:02 PM CDT
Civil Twilight 5:31 AM CDT 8:29 PM CDT
Nautical Twilight 4:57 AM CDT 9:03 PM CDT
Astronomical Twilight 4:22 AM CDT 9:38 PM CDT
Moon 11:32 AM CDT (7/3) 11:52 PM CDT (7/3)
Length of Visible Light 14h 58m
Length of Day
14h 03m
Waxing Crescent, 33% of the Moon is Illuminated
Jul 3
Waxing Crescent
Jul 5
First Quarter
Jul 12
Full
Jul 18
Last Quarter
Jul 26
New

Hourly Weather History & Observations

Time (CDT) Temp. Heat Index Dew Point Humidity Pressure Visibility Wind Dir Wind Speed Gust Speed Precip Events Conditions
12:53 AM 79.0 °F - 70.0 °F 74% 30.00 in 10.0 mi North 5.8 mph - N/A   Clear
1:53 AM 79.0 °F - 70.0 °F 74% 29.98 in 10.0 mi NE 4.6 mph - N/A   Clear
2:53 AM 79.0 °F - 69.1 °F 72% 29.97 in 10.0 mi ENE 3.5 mph - N/A   Clear
3:53 AM 77.0 °F - 70.0 °F 79% 29.99 in 9.0 mi NW 3.5 mph - N/A   Clear
4:53 AM 77.0 °F - 70.0 °F 79% 30.00 in 10.0 mi Calm Calm - N/A   Clear
5:53 AM 75.9 °F - 70.0 °F 82% 30.02 in 10.0 mi Calm Calm - N/A   Clear
6:53 AM 77.0 °F - 70.0 °F 79% 30.03 in 9.0 mi North 4.6 mph - N/A   Clear
7:53 AM 81.0 °F 84.4 °F 70.0 °F 69% 30.05 in 10.0 mi North 10.4 mph - N/A   Clear
8:53 AM 84.2 °F 88.4 °F 69.8 °F 62% 30.08 in 10.0 mi North 6.9 mph - N/A   Clear
9:53 AM 86.0 °F 89.4 °F 68.0 °F 55% 30.08 in 10.0 mi North 9.2 mph - N/A   Clear
10:53 AM 88.0 °F 92.1 °F 69.1 °F 53% 30.07 in 10.0 mi North 8.1 mph - N/A   Clear
11:53 AM 91.0 °F 95.2 °F 68.0 °F 47% 30.07 in 10.0 mi NNE 8.1 mph - N/A   Clear
12:53 PM 91.9 °F 95.9 °F 68.0 °F 45% 30.07 in 10.0 mi Variable 6.9 mph - N/A   Clear
1:53 PM 93.2 °F 96.2 °F 66.2 °F 41% 30.06 in 10.0 mi North 9.2 mph - N/A   Clear
2:53 PM 93.9 °F 99.1 °F 69.1 °F 44% 30.05 in 10.0 mi North 8.1 mph - N/A   Scattered Clouds
3:53 PM 93.9 °F 98.6 °F 68.0 °F 43% 30.04 in 10.0 mi NNE 9.2 mph - N/A   Partly Cloudy
4:53 PM 93.0 °F 97.9 °F 69.1 °F 45% 30.03 in 10.0 mi North 9.2 mph - N/A   Clear
5:53 PM 91.9 °F 95.9 °F 68.0 °F 45% 30.02 in 10.0 mi North 6.9 mph - N/A   Clear
6:53 PM 91.0 °F 95.6 °F 69.1 °F 48% 30.02 in 10.0 mi NNE 4.6 mph - N/A   Clear
7:53 PM 89.1 °F 94.1 °F 70.0 °F 53% 30.04 in 10.0 mi Calm Calm - N/A   Clear
8:53 PM 84.0 °F 90.2 °F 73.0 °F 69% 30.05 in 10.0 mi Calm Calm - N/A   Clear
9:53 PM 82.0 °F 87.4 °F 73.0 °F 74% 30.07 in 10.0 mi Calm Calm - N/A   Clear
10:53 PM 81.0 °F 85.8 °F 73.0 °F 77% 30.08 in 10.0 mi Calm Calm - N/A   Clear
11:53 PM 80.1 °F 84.2 °F 73.0 °F 79% 30.09 in 9.0 mi Calm Calm - N/A   Clear